Location: Feydey
(46.3431°N, 7.0106°E)
Time: 07:03:57
(UTC+00:00)

Cosmos 2278 Rocket - Pass Details

Date: 20 June 2021
Orbit: 840 x 847 km, 71.0° (Epoch: 04 August)

Event Time Altitude Azimuth Distance (km) Brightness Sun altitude
Rises 22:53:03 0° 325° (NW) 3,411 6.5 -19.6°
Reaches altitude 10° 22:55:43 10° 316° (NW) 2,473 5.4 -19.7°
Maximum altitude 23:00:40 32° 255° (WSW) 1,416 3.3 -19.8°
Enters shadow 23:02:42 25° 219° (SW) 1,641 3.3 -19.9°
